CW5229 Weather Reports


Display with metric or nautical units.
time (UTC)temp
F
wind
direction
speed
MPH
gust
MPH
rain 1hr
in
rain 24hr
in
rain mn
in
humidity
%
barometer
mb
20260904181513 88 89 3.0 11.0 0.00 0.00 0.00 71 1012.3
20260904180010 86 103 3.0 9.0 0.00 0.00 0.00 74 1012.8
20260904174507 84 101 4.0 11.0 0.00 0.00 0.00 75 1013.0
20260904173118 83 86 4.0 11.0 0.00 0.00 0.00 77 1013.4
20260904171604 83 39 5.0 11.0 0.00 0.00 0.00 77 1013.7
20260904170022 85 60 2.0 10.0 0.00 0.00 0.00 78 1013.7
20260904164521 86 79 3.0 10.0 0.00 0.00 0.00 75 1013.6
20260904163020 86 62 1.0 6.0 0.00 0.00 0.00 75 1013.3
20260904161516 86 97 1.0 7.0 0.00 0.00 0.00 73 1012.9
20260904160014 86 76 4.0 7.0 0.00 0.00 0.00 73 1013.0
20260904154513 86 16 4.0 10.0 0.00 0.00 0.00 72 1012.7
20260904153008 87 58 2.0 9.0 0.00 0.00 0.00 71 1012.5
20260904151507 89 39 1.0 5.0 0.00 0.00 0.00 68 1012.4
20260904150006 88 345 2.0 7.0 0.00 0.00 0.00 67 1012.4
20260904144505 88 30 1.0 3.0 0.00 0.00 0.00 68 1012.3
20260904143005 88 323 1.0 5.0 0.00 0.00 0.00 68 1012.3
20260904141604 87 60 0.0 4.0 0.00 0.00 0.00 71 1012.1
20260904140100 87 324 0.0 2.0 0.00 0.00 0.00 70 1011.9
20260904134606 85 328 0.0 3.0 0.00 0.00 0.00 73 1012.0
20260904133057 87 329 0.0 2.0 0.00 0.00 0.00 71 1012.0
20260904131557 84 173 0.0 1.0 0.00 0.00 0.00 76 1011.9
20260904130056 84 135 0.0 1.0 0.00 0.00 0.00 76 1011.9
20260904124602 82 214 0.0 1.0 0.00 0.00 0.00 78 1011.8
20260904123052 81 214 0.0 0.0 0.00 0.00 0.00 80 1011.4
20260904121551 0 0.0 0.0 0.00 0.00 0.00 1011.1
20260904120048 0 0.0 0.0 0.00 0.00 0.00 1011.0
20260904114545 0 0.0 0.0 0.00 0.00 0.00 1010.6
20260904113040 0 0.0 0.0 0.00 0.00 0.00 1010.4
20260904111531 0 0.0 0.0 0.00 0.00 0.00 1010.3
20260904110027 0 142 0.0 1.0 0.00 0.00 0.00 1010.2
20260904104524 75 175 0.0 2.0 0.00 0.00 0.00 88 1010.1
20260904103052 75 179 0.0 3.0 0.00 0.00 0.00 88 1010.2
20260904101557 75 167 0.0 1.0 0.00 0.00 0.00 89 1010.1
20260904100048 75 224 0.0 3.0 0.00 0.00 0.00 90 1010.1
20260904094559 75 233 0.0 3.0 0.00 0.00 0.00 90 1010.2
20260904093048 75 223 0.0 2.0 0.00 0.00 0.00 90 1010.5
20260904091545 75 205 0.0 0.0 0.00 0.00 0.00 89 1010.8
20260904090042 76 205 0.0 1.0 0.00 0.00 0.00 89 1010.8
20260904084541 76 233 0.0 1.0 0.00 0.00 0.00 88 1010.9
20260904083042 76 176 0.0 0.0 0.00 0.00 0.00 88 1010.7
20260904081541 77 226 0.0 1.0 0.00 0.00 0.00 88 1010.6
20260904080009 77 175 0.0 0.0 0.00 0.00 0.00 88 1010.2
20260904074508 77 167 0.0 3.0 0.00 0.00 0.00 89 1010.0
20260904073006 76 232 0.0 3.0 0.00 0.00 0.00 90 1010.0
20260904071505 76 228 0.0 2.0 0.00 0.00 0.00 90 1010.1
20260904070004 76 119 0.0 1.0 0.00 0.00 0.00 90 1010.5
20260904064503 77 98 0.0 1.0 0.00 0.00 0.00 90 1010.8
20260904063101 77 133 0.0 0.0 0.00 0.00 0.00 90 1011.1
20260904061529 77 133 0.0 0.0 0.00 0.00 0.00 89 1011.2
20260904060028 78 133 0.0 0.0 0.00 0.00 0.00 89 1011.2
20260904054556 78 132 0.0 0.0 0.00 0.00 0.00 89 1011.4
20260904053054 78 132 0.0 0.0 0.00 0.00 0.00 89 1011.2
20260904051553 78 135 0.0 0.0 0.00 0.00 0.00 88 1011.2
20260904050050 79 39 0.0 0.0 0.00 0.00 0.00 88 1011.2
20260904044551 79 155 0.0 0.0 0.00 0.00 0.00 87 1011.1
20260904043058 79 210 0.0 2.0 0.00 0.00 0.00 87 1011.2
20260904041544 79 176 0.0 1.0 0.00 0.00 0.00 86 1011.3
20260904040044 80 115 0.0 1.0 0.00 0.00 0.00 86 1011.3
20260904034549 80 120 0.0 0.0 0.00 0.00 0.00 86 1011.2
20260904033040 80 120 0.0 1.0 0.00 0.00 0.00 85 1011.3
20260904031530 81 120 0.0 2.0 0.00 0.00 0.00 84 1011.3
20260904030029 81 136 0.0 1.0 0.00 0.00 0.00 84 1011.4
20260904024530 81 69 0.0 1.0 0.00 0.00 0.00 83 1011.4
20260904023028 82 86 0.0 2.0 0.00 0.00 0.00 82 1011.3
20260904021533 82 122 0.0 2.0 0.00 0.00 0.00 82 1011.2
20260904020020 82 91 0.0 2.0 0.00 0.00 0.00 81 1010.9
20260904014520 83 108 0.0 2.0 0.00 0.00 0.00 81 1010.8
20260904013018 83 126 0.0 3.0 0.00 0.00 0.00 81 1010.6
20260904011521 83 103 0.0 2.0 0.00 0.00 0.00 81 1010.3
20260904010014 84 127 0.0 3.0 0.00 0.00 0.00 81 1010.0
20260904004517 84 160 0.0 1.0 0.00 0.00 0.00 80 1010.0
20260904003012 84 110 0.0 0.0 0.00 0.00 0.00 77 1010.0
20260904001508 84 110 0.0 1.0 0.00 0.00 0.00 77 1010.1
20260904000014 85 110 0.0 1.0 0.00 0.00 0.00 75 1010.2
20260903234510 85 106 0.0 3.0 0.00 0.00 0.00 75 1010.2
20260903233004 84 67 0.0 3.0 0.00 0.00 0.00 76 1010.1
20260903231534 85 120 0.0 2.0 0.00 0.00 0.00 74 1010.1
20260903230035 85 98 0.0 4.0 0.00 0.00 0.00 73 1010.3
20260903224502 86 64 1.0 3.0 0.00 0.00 0.00 72 1010.5
20260903223003 89 108 1.0 6.0 0.00 0.00 0.00 68 1010.4
20260903221559 91 270 0.0 2.0 0.00 0.00 0.00 66 1010.3
20260903220111 92 160 0.0 3.0 0.00 0.00 0.00 65 1010.2
20260903214602 91 132 1.0 3.0 0.00 0.00 0.00 64 1010.3
20260903213058 91 86 1.0 3.0 0.00 0.00 0.00 63 1010.3
20260903211553 91 137 0.0 2.0 0.00 0.00 0.00 63 1010.3
20260903210052 91 111 1.0 4.0 0.00 0.00 0.00 64 1010.5
20260903204550 89 115 2.0 7.0 0.00 0.00 0.00 65 1010.6
20260903203047 88 46 1.0 5.0 0.00 0.00 0.00 65 1010.8
20260903201517 87 57 1.0 4.0 0.00 0.00 0.00 65 1011.0
20260903200019 87 46 2.0 6.0 0.00 0.00 0.00 66 1011.0
20260903194511 86 69 4.0 7.0 0.00 0.00 0.00 67 1011.4
20260903193007 85 124 3.0 9.0 0.00 0.00 0.00 67 1011.5
20260903191516 85 73 4.0 10.0 0.00 0.00 0.00 68 1011.8
20260903190005 85 77 4.0 8.0 0.00 0.00 0.00 69 1011.9
20260903184533 85 69 3.0 10.0 0.00 0.00 0.00 70 1012.0
20260903183031 85 86 5.0 10.0 0.00 0.00 0.00 71 1012.1